Regional Weather Roundup
Issued by NWS Mt. Holly, NJ

Home | Current Version | Previous Version | Text Only | Print | Product List | Glossary On
Versions: 1 2 3 4 5 6 7 8 9 10 11 12 13 14 15 16 17 18 19 20 21 22 23 24 25 26 27 28 29 30 31 32 33 34 35 36 37 38 39 40 41 42 43 44 45 46 47 48 49 50
000
ASUS41 KPHI 281110
RWRPHI

REGIONAL WEATHER ROUNDUP
NATIONAL WEATHER SERVICE MOUNT HOLLY NJ
700 AM EDT MON JUL 28 2014

NOTE:  "FAIR" INDICATES FEW OR NO CLOUDS BELOW 12,000 FEET WITH NO
SIGNIFICANT WEATHER AND/OR OBSTRUCTIONS TO VISIBILITY.

 * = STATION DOES NOT REPORT PRECIPITATION (E.G. RAIN, SNOW, ETC.)
        OR FOG.

NJZ015>026-281200-
SOUTHERN NEW JERSEY

CITY           SKY/WX    TMP DP  RH WIND       PRES   REMARKS
POMONA         PTSUNNY   72  71  97 S7        29.57R
RIO GRANDE*    MOSUNNY   75  70  83 SW10      29.60R
MILLVILLE      SUNNY     73  72  96 SW3       29.58R
WRIGHTSTOWN    CLOUDY    67  67  99 SW1       29.54S
MOUNT HOLLY    PTSUNNY   68  67  96 CALM      29.56S
TRENTON        PTSUNNY   68  67  96 S5        29.55S

$$
NJZ001>014-281200-
NORTHERN NEW JERSEY

CITY           SKY/WX    TMP DP  RH WIND       PRES   REMARKS
SUSSEX         CLOUDY    70  66  87 SW3       29.55F
ANDOVER*         N/A     68  67  96 CALM      29.56F
NEWARK         CLOUDY    71  67  87 S3        29.56R
TETERBORO      CLOUDY    73  66  78 S8        29.54S
CALDWELL       CLOUDY    69  66  90 CALM      29.56S
SOMERVILLE     PTSUNNY   68  66  93 CALM      29.53F FOG
ALLAIRE*       MOSUNNY   68  64  88 CALM      29.56S
TOMS RIVER*    PTSUNNY   68  66  94 CALM      29.57S

$$
PAZ043-044-047-054-055-060>062-066>071-281200-
EASTERN PENNSYLVANIA

CITY           SKY/WX    TMP DP  RH WIND       PRES   REMARKS
PHILADELPHIA   PTSUNNY   71  67  87 SW7       29.56S
NORTH PHILA    MOSUNNY   70  66  87 CALM      29.57S
BLUE BELL      SUNNY     70  68  94 CALM      29.56S
DOYLESTOWN     SUNNY     67  67 100 W3        29.56S
QUAKERTOWN*    CLOUDY    66  66 100 SW3       29.58R
POTTSTOWN      PTSUNNY   67  65  93 CALM      29.59R
LANCASTER      CLOUDY    67  65  93 NW8       29.59R FOG
COATESVILLE    MOSUNNY   66  66 100 W5        29.59R
READING        CLOUDY    69  66  90 NW7       29.57R
ALLENTOWN      CLOUDY    68  64  87 W9        29.57R
MOUNT POCONO   CLOUDY    63  61  93 W6        29.60R
HAZLETON       CLOUDY    63  63 100 SW3       29.62R FOG
WILKES BARRE   CLOUDY    66  64  93 SW3       29.57R

$$
DEZALL-MDZ008-012-015-019-020-281200-
DELAWARE AND EASTERN MARYLAND

CITY           SKY/WX    TMP DP  RH WIND       PRES   REMARKS
WILMINGTON     SUNNY     69  68  96 SW3       29.58R
DOVER          MOSUNNY   75  75 100 SW8       29.56R
GEORGETOWN     MOSUNNY   76  72  87 S8        29.60S
EASTON         PTCLDY    77  77 100 W6        29.63S
PATUXENT       PTCLDY    76  71  85 SW9       29.62R
OCEAN CITY     SUNNY     78  73  84 SW6       29.60S
WALLOPS ISLAND CLEAR     80  74  81 W9        29.62S
CAMBRIDGE      PTCLDY    77  72  83 SW3       29.61R

$$
PAZ001-021-NYZ056-072-MDZ011-DCZ001-281200-
OTHER NEARBY LOCATIONS

CITY           SKY/WX    TMP DP  RH WIND       PRES   REMARKS
HARRISBURG     PTCLDY    66  63  90 CALM      29.58R
STATE COLLEGE  CLOUDY    64  61  88 W7        29.61R
WILLIAMSPORT   CLOUDY    67  64  90 CALM      29.54S
BINGHAMTON     FOG       63  62  97 CALM      29.56S VSB 1/4
NEW YORK CITY  CLOUDY    70  67  90 VRB6      29.59R
BALTIMORE      PTCLDY    71  68  90 W3        29.60R
WASHINGTON DC  PTCLDY    75  70  84 SW5       29.61R

$$


USA.gov is the U.S. government's official web portal to all federal, state and local government web resources and services.